Zurück zum Katalog

STARLINK-4368

AktivKommunikationSSO
NORAD 53234·PAYLOAD·🇺🇸 United States

Gestartet Jul 22, 2022 von Vandenberg Space Force Base

Loading…

Nächste Überflüge (nächste 24 Stunden)

TLE

AktuellSource: CelesTrak SupGP

Epoche: Sep 14, 2026, 21:40 UTC

1 53234C 22084AX  26257.90326389 -.00037025  00000+0 -10276-2 0  2578
2 53234  97.4814 322.4901 0001318 114.2412 332.0374 15.36980600    12

Verfolge STARLINK-4368 in Echtzeit mit AllMySat

Download on the App Store